Weather in Krasnogorka

Russia / Omsk Oblast     54°34′11″N   71°40′54″E
temp.,
°C
wind,
m/s
gust,
m/s
humid.,
%
clouds,
%
prec.,
mm/h
press.,
hPa
HPBL,
m
18 may, tue
tue1800:00+23w33370 0.0 101230
03:00+21wsw512415 0.0 1011180
06:00+18w4105299 0.0 1011189
09:00+22nw6845100 0.0 1011633
12:00+26nw6837100 0.0 10111744
15:00+27nw5731100 0.0 10102494
18:00+27wnw8112785 0.0 10083533
21:00+17nnw61163100 0.5 1011441
19 may, wed
wed1900:00+16nne6108268 0.9 1012552
03:00+12nne61084100 0.0 1013577
06:00+12nne61175100 0.0 1015888
09:00+13nne71060100 0.1 10161000
12:00+17nne783832 0.1 10172092
15:00+18nne793273 0.0 10172427
18:00+17nne793843 0.0 10182225
21:00+13ne58495 0.0 1019307
20 may, thu
thu2000:00+12n484788 0.0 1020755
03:00+9n49595 0.0 1021236
06:00+7n48685 0.0 1023243
09:00+10nne57465 0.0 1025997
12:00+13n552613 0.0 10241421
15:00+16n45225 0.0 10241674
18:00+16nnw5730100 0.0 10241881
21:00+13se124765 0.0 102346
21 may, fri
fri2100:00+13ssw4944100 0.0 1021309
03:00+14sw4845100 0.0 1020270
06:00+15nw4105430 0.0 1019357
09:00+18nnw575467 0.0 1021606
12:00+22nne575024 0.0 10211234
15:00+24nne45355 0.0 10211456
18:00+25nne23345 0.0 10221240
21:00+21se33453 0.0 102229
22 may, sat
sat2200:00+19ssw47470 0.1 1022100
03:00+17wsw49525 0.0 1022145
06:00+17wnw35605 0.0 102386
09:00+24wnw57391 0.0 1023428
12:00+28nw56270 0.0 10232060
15:00+30nw55220 0.0 10222563
18:00+29nw55230 0.0 10222566
21:00+24nw23360 0.0 102215